GSAT 15

导读

GSAT-15是印度空间研究组织(ISRO)于2015年11月10日发射的通信卫星,由印度空间研究组织研制,属于印度GSAT系列通信卫星成员。该卫星携带通信有效载荷,旨在加强印度国内的通信基础设施覆盖,为用户提供通信广播服务,同时还承载了导航相关有效载荷,助力印度区域卫星导航系统(IRNSS),提升导航服务能力与冗余度,服务印度及周边区域的通信与定位需求。

Basic Information
目录编号:
41028
目录名称:
GSAT 15
国际标识:
2015-065A
轨道中心:
EARTH
卫星名称:
GSAT 15
卫星全名:
--
卫星状态:
在轨 (已飞行3872 天)
发射日期:
2015-11-10 UTC
国别 :
印度 (IN)
星等 :
--
Orbit Information
数据来源 国际轨道数据 AOE轨道数据
星历时间 2026-06-17T07:43:31+0800
18小时前
查看轨道信息
2026-06-17T05:00:00+0800
21小时前
查看轨道信息
半长轴 42164.588km 42164.448km
偏心率 0.0004211 0.0004063
轨道倾角 0.070° 0.071°
近地点辐角 163.282° 161.606°
升交点赤经 265.236° 264.414°
平近点角 286.108° 247.616°
近地点 35768.695km 35769.179km
远地点 35804.207km 35803.443km
周期 1436.090分钟 1436.082分钟
每日圈数 1.002723 1.002728
Detailed Information
使用方式:
暂无
2D Orbit Map
3D Orbit Map
Orbit Altitude Analysis Chart
Orbit Inclination Analysis Chart
Orbit Comprehensive Analysis Chart
View Comprehensive Chart